Time,TemperatureF,DewpointF,PressureIn,WindDirection,WindDirectionDegrees,WindSpeedMPH,WindSpeedGustMPH,Humidity,HourlyPrecipIn,Conditions,Clouds,dailyrainin,SoftwareType,DateUTC
2013-09-27 00:05:00,53.4,48.4,30.09,East,100,0.0,0.0,83,0.00,,,0.00,Wunderground v.1.15,2013-09-27 07:05:00,
2013-09-27 00:20:00,53.3,47.9,30.09,South,180,1.0,1.0,82,0.00,,,0.00,Wunderground v.1.15,2013-09-27 07:20:00,
2013-09-27 00:25:00,53.2,48.2,30.09,SSW,212,1.0,1.0,83,0.00,,,0.00,Wunderground v.1.15,2013-09-27 07:25:00,
2013-09-27 00:35:00,53.1,48.4,30.09,South,169,1.0,1.0,84,0.00,,,0.00,Wunderground v.1.15,2013-09-27 07:35:00,
2013-09-27 00:45:00,52.8,48.1,30.09,SSW,201,0.0,1.0,84,0.00,,,0.00,Wunderground v.1.15,2013-09-27 07:45:00,
2013-09-27 00:55:00,52.6,48.2,30.09,SSW,206,1.0,1.0,85,0.00,,,0.00,Wunderground v.1.15,2013-09-27 07:55:00,
2013-09-27 01:00:00,52.4,48.0,30.09,NNE,17,0.0,0.0,85,0.00,,,0.00,Wunderground v.1.15,2013-09-27 08:00:00,
2013-09-27 01:05:00,52.3,48.2,30.08,WNW,303,0.0,0.0,86,0.00,,,0.00,Wunderground v.1.15,2013-09-27 08:05:00,
2013-09-27 01:10:00,52.3,48.2,30.08,SSW,197,0.0,4.0,86,0.00,,,0.00,Wunderground v.1.15,2013-09-27 08:10:00,
2013-09-27 01:15:00,52.3,47.9,30.09,South,175,1.0,4.0,85,0.00,,,0.00,Wunderground v.1.15,2013-09-27 08:15:00,
2013-09-27 01:25:00,52.3,48.2,30.08,SSW,202,0.0,1.0,86,0.00,,,0.00,Wunderground v.1.15,2013-09-27 08:25:00,
2013-09-27 01:35:00,52.3,48.2,30.08,South,185,0.0,3.0,86,0.00,,,0.00,Wunderground v.1.15,2013-09-27 08:35:00,
2013-09-27 01:45:00,52.5,48.4,30.08,South,185,1.0,5.0,86,0.00,,,0.00,Wunderground v.1.15,2013-09-27 08:45:00,
2013-09-27 01:55:00,52.6,48.5,30.08,SE,133,1.0,3.0,86,0.00,,,0.00,Wunderground v.1.15,2013-09-27 08:55:00,
2013-09-27 02:05:00,52.6,48.2,30.08,SE,133,2.0,2.0,85,0.00,,,0.00,Wunderground v.1.15,2013-09-27 09:05:00,
2013-09-27 02:15:00,52.6,48.5,30.08,SSE,165,2.0,2.0,86,0.00,,,0.00,Wunderground v.1.15,2013-09-27 09:15:00,
2013-09-27 02:25:00,52.6,48.5,30.08,SE,143,1.0,2.0,86,0.00,,,0.00,Wunderground v.1.15,2013-09-27 09:25:00,
2013-09-27 02:35:00,52.6,48.5,30.08,West,267,2.0,2.0,86,0.00,,,0.00,Wunderground v.1.15,2013-09-27 09:35:00,
2013-09-27 02:45:00,52.5,48.4,30.07,SSW,193,2.0,5.0,86,0.00,,,0.00,Wunderground v.1.15,2013-09-27 09:45:00,
2013-09-27 02:55:00,52.6,48.5,30.07,South,185,2.0,5.0,86,0.00,,,0.00,Wunderground v.1.15,2013-09-27 09:55:00,
2013-09-27 03:05:00,52.6,48.2,30.07,South,180,1.0,2.0,85,0.00,,,0.00,Wunderground v.1.15,2013-09-27 10:05:00,
2013-09-27 03:15:00,52.7,48.0,30.06,SSE,158,2.0,3.0,84,0.00,,,0.00,Wunderground v.1.15,2013-09-27 10:15:00,
2013-09-27 03:25:00,52.6,47.9,30.06,ESE,107,2.0,2.0,84,0.00,,,0.00,Wunderground v.1.15,2013-09-27 10:25:00,
2013-09-27 03:35:00,52.6,47.9,30.06,SSW,193,1.0,3.0,84,0.00,,,0.00,Wunderground v.1.15,2013-09-27 10:35:00,
2013-09-27 03:40:00,52.5,47.8,30.05,South,180,2.0,7.0,84,0.00,,,0.00,Wunderground v.1.15,2013-09-27 10:40:00,
2013-09-27 03:45:00,52.5,47.8,30.05,SW,226,2.0,7.0,84,0.00,,,0.00,Wunderground v.1.15,2013-09-27 10:45:00,
2013-09-27 03:55:00,52.4,48.0,30.05,ESE,123,1.0,7.0,85,0.00,,,0.00,Wunderground v.1.15,2013-09-27 10:55:00,
2013-09-27 04:00:00,52.4,48.0,30.05,South,185,1.0,1.0,85,0.00,,,0.00,Wunderground v.1.15,2013-09-27 11:00:00,
2013-09-27 04:10:00,52.4,48.3,30.04,WSW,243,1.0,1.0,86,0.00,,,0.00,Wunderground v.1.15,2013-09-27 11:10:00,
2013-09-27 04:15:00,52.5,48.1,30.04,ESE,106,1.0,1.0,85,0.00,,,0.00,Wunderground v.1.15,2013-09-27 11:15:00,
2013-09-27 04:20:00,52.5,48.1,30.04,South,175,2.0,4.0,85,0.00,,,0.00,Wunderground v.1.15,2013-09-27 11:20:00,
2013-09-27 04:25:00,52.6,48.2,30.03,SSW,208,2.0,4.0,85,0.00,,,0.00,Wunderground v.1.15,2013-09-27 11:25:00,
2013-09-27 04:35:00,52.7,48.3,30.03,SSE,164,1.0,7.0,85,0.00,,,0.00,Wunderground v.1.15,2013-09-27 11:35:00,
2013-09-27 04:45:00,52.8,48.4,30.03,SSE,165,1.0,2.0,85,0.00,,,0.00,Wunderground v.1.15,2013-09-27 11:45:00,
2013-09-27 04:55:00,52.8,48.4,30.03,SSE,151,1.0,7.0,85,0.00,,,0.00,Wunderground v.1.15,2013-09-27 11:55:00,
2013-09-27 05:05:00,52.9,48.2,30.02,SSE,151,1.0,3.0,84,0.00,,,0.00,Wunderground v.1.15,2013-09-27 12:05:00,
2013-09-27 05:15:00,53.0,48.3,30.02,NNE,14,1.0,2.0,84,0.00,,,0.00,Wunderground v.1.15,2013-09-27 12:15:00,
2013-09-27 05:25:00,53.0,48.3,30.02,SE,132,1.0,1.0,84,0.00,,,0.00,Wunderground v.1.15,2013-09-27 12:25:00,
2013-09-27 05:35:00,53.1,48.4,30.02,SE,145,1.0,6.0,84,0.00,,,0.00,Wunderground v.1.15,2013-09-27 12:35:00,
2013-09-27 05:45:00,53.1,48.4,30.03,SSE,158,1.0,6.0,84,0.00,,,0.00,Wunderground v.1.15,2013-09-27 12:45:00,
2013-09-27 05:55:00,53.1,48.4,30.03,South,175,1.0,6.0,84,0.00,,,0.00,Wunderground v.1.15,2013-09-27 12:55:00,
2013-09-27 06:05:00,53.1,48.4,30.02,South,180,1.0,1.0,84,0.00,,,0.00,Wunderground v.1.15,2013-09-27 13:05:00,
2013-09-27 06:15:00,53.1,48.4,30.03,SW,218,1.0,1.0,84,0.00,,,0.00,Wunderground v.1.15,2013-09-27 13:15:00,
2013-09-27 06:25:00,53.6,49.2,30.02,South,180,1.0,1.0,85,0.00,,,0.00,Wunderground v.1.15,2013-09-27 13:25:00,
2013-09-27 06:35:00,53.3,49.2,30.02,South,190,1.0,6.0,86,0.00,,,0.00,Wunderground v.1.15,2013-09-27 13:35:00,
2013-09-27 06:45:00,53.6,49.5,30.02,SE,131,2.0,6.0,86,0.00,,,0.00,Wunderground v.1.15,2013-09-27 13:45:00,
2013-09-27 06:55:00,53.7,49.6,30.01,South,180,2.0,6.0,86,0.00,,,0.00,Wunderground v.1.15,2013-09-27 13:55:00,
2013-09-27 07:05:00,53.7,49.6,30.01,SSE,157,1.0,2.0,86,0.00,,,0.00,Wunderground v.1.15,2013-09-27 14:05:00,
2013-09-27 07:15:00,53.6,49.5,30.00,SSE,155,1.0,3.0,86,0.00,,,0.00,Wunderground v.1.15,2013-09-27 14:15:00,
2013-09-27 07:25:00,53.5,49.4,30.00,SE,145,1.0,3.0,86,0.00,,,0.00,Wunderground v.1.15,2013-09-27 14:25:00,
2013-09-27 07:35:00,53.3,49.2,30.00,South,185,1.0,5.0,86,0.00,,,0.00,Wunderground v.1.15,2013-09-27 14:35:00,
2013-09-27 07:45:00,53.3,49.5,30.00,South,185,1.0,5.0,87,0.00,,,0.01,Wunderground v.1.15,2013-09-27 14:45:00,
2013-09-27 07:55:00,53.1,49.6,30.00,SSW,208,1.0,5.0,88,0.06,,,0.02,Wunderground v.1.15,2013-09-27 14:55:00,
2013-09-27 08:00:00,53.0,49.5,30.00,South,185,1.0,2.0,88,0.06,,,0.02,Wunderground v.1.15,2013-09-27 15:00:00,
2013-09-27 08:10:00,52.8,49.9,30.00,SSW,206,1.0,1.0,90,0.04,,,0.02,Wunderground v.1.15,2013-09-27 15:10:00,
2013-09-27 08:15:00,52.8,49.9,30.00,SSW,199,1.0,1.0,90,0.00,,,0.03,Wunderground v.1.15,2013-09-27 15:15:00,
2013-09-27 08:25:00,52.7,49.8,30.00,SSE,168,0.0,0.0,90,0.00,,,0.03,Wunderground v.1.15,2013-09-27 15:25:00,
2013-09-27 08:35:00,52.4,49.8,29.99,South,180,1.0,3.0,91,0.11,,,0.05,Wunderground v.1.15,2013-09-27 15:35:00,
2013-09-27 08:45:00,52.4,50.1,29.99,ESE,118,1.0,2.0,92,0.04,,,0.05,Wunderground v.1.15,2013-09-27 15:45:00,
2013-09-27 08:55:00,52.2,49.9,29.99,SSE,162,1.0,2.0,92,0.04,,,0.06,Wunderground v.1.15,2013-09-27 15:55:00,
2013-09-27 09:00:00,51.9,49.4,29.98,SSE,149,1.0,1.0,91,0.04,,,0.06,Wunderground v.1.15,2013-09-27 16:00:00,
2013-09-27 09:05:00,52.0,49.7,29.98,SW,226,1.0,1.0,92,0.00,,,0.06,Wunderground v.1.15,2013-09-27 16:05:00,
2013-09-27 09:15:00,52.5,50.2,29.98,South,175,1.0,2.0,92,0.00,,,0.06,Wunderground v.1.15,2013-09-27 16:15:00,
2013-09-27 09:25:00,53.0,50.4,29.98,SSE,147,2.0,2.0,91,0.00,,,0.06,Wunderground v.1.15,2013-09-27 16:25:00,
2013-09-27 09:35:00,53.3,50.7,29.98,SW,218,1.0,7.0,91,0.00,,,0.06,Wunderground v.1.15,2013-09-27 16:35:00,
2013-09-27 09:45:00,53.7,50.8,29.98,ESE,108,1.0,7.0,90,0.00,,,0.06,Wunderground v.1.15,2013-09-27 16:45:00,
2013-09-27 09:55:00,54.1,50.6,29.98,South,185,2.0,7.0,88,0.00,,,0.06,Wunderground v.1.15,2013-09-27 16:55:00,
2013-09-27 10:05:00,54.1,50.6,29.98,SSE,147,2.0,3.0,88,0.00,,,0.06,Wunderground v.1.15,2013-09-27 17:05:00,
2013-09-27 10:15:00,54.0,50.5,29.98,South,185,2.0,2.0,88,0.00,,,0.06,Wunderground v.1.15,2013-09-27 17:15:00,
2013-09-27 10:25:00,54.1,50.6,29.98,South,180,2.0,4.0,88,0.00,,,0.06,Wunderground v.1.15,2013-09-27 17:25:00,
2013-09-27 10:30:00,54.2,50.7,29.98,SSW,205,1.0,1.0,88,0.00,,,0.06,Wunderground v.1.15,2013-09-27 17:30:00,
2013-09-27 10:35:00,54.2,50.7,29.97,SE,139,1.0,7.0,88,0.00,,,0.06,Wunderground v.1.15,2013-09-27 17:35:00,
2013-09-27 10:40:00,54.2,50.7,29.97,SW,220,2.0,7.0,88,0.00,,,0.06,Wunderground v.1.15,2013-09-27 17:40:00,
2013-09-27 10:45:00,54.2,50.4,29.97,SSW,204,2.0,7.0,87,0.00,,,0.06,Wunderground v.1.15,2013-09-27 17:45:00,
2013-09-27 10:55:00,54.3,50.8,29.97,SE,127,1.0,7.0,88,0.00,,,0.06,Wunderground v.1.15,2013-09-27 17:55:00,
2013-09-27 11:05:00,54.6,50.8,29.97,South,185,1.0,1.0,87,0.00,,,0.06,Wunderground v.1.15,2013-09-27 18:05:00,
2013-09-27 11:15:00,54.9,50.8,29.96,South,180,1.0,3.0,86,0.00,,,0.06,Wunderground v.1.15,2013-09-27 18:15:00,
2013-09-27 11:25:00,55.0,50.9,29.96,SSE,153,2.0,3.0,86,0.00,,,0.06,Wunderground v.1.15,2013-09-27 18:25:00,
2013-09-27 11:30:00,55.1,50.7,29.96,SSW,199,2.0,2.0,85,0.00,,,0.06,Wunderground v.1.15,2013-09-27 18:30:00,
2013-09-27 11:35:00,55.2,50.8,29.95,South,180,2.0,3.0,85,0.00,,,0.06,Wunderground v.1.15,2013-09-27 18:35:00,
2013-09-27 11:45:00,55.5,50.7,29.95,SW,224,2.0,10.0,84,0.00,,,0.06,Wunderground v.1.15,2013-09-27 18:45:00,
2013-09-27 11:55:00,55.7,50.9,29.95,SSE,153,2.0,10.0,84,0.00,,,0.06,Wunderground v.1.15,2013-09-27 18:55:00,
2013-09-27 12:10:00,55.8,50.7,29.94,SSE,158,3.0,3.0,83,0.00,,,0.06,Wunderground v.1.15,2013-09-27 19:10:00,
2013-09-27 12:15:00,56.1,50.7,29.94,North,4,3.0,3.0,82,0.00,,,0.06,Wunderground v.1.15,2013-09-27 19:15:00,
2013-09-27 12:25:00,56.6,51.2,29.94,South,180,2.0,8.0,82,0.00,,,0.06,Wunderground v.1.15,2013-09-27 19:25:00,
2013-09-27 12:35:00,56.7,51.3,29.93,SW,223,3.0,3.0,82,0.00,,,0.06,Wunderground v.1.15,2013-09-27 19:35:00,
2013-09-27 12:40:00,56.8,51.0,29.93,SSW,205,3.0,9.0,81,0.00,,,0.06,Wunderground v.1.15,2013-09-27 19:40:00,
2013-09-27 12:45:00,56.7,50.9,29.93,SSW,192,3.0,9.0,81,0.00,,,0.06,Wunderground v.1.15,2013-09-27 19:45:00,
2013-09-27 12:55:00,56.6,51.2,29.93,SSW,208,3.0,9.0,82,0.00,,,0.06,Wunderground v.1.15,2013-09-27 19:55:00,
2013-09-27 13:05:00,56.7,51.3,29.93,South,185,3.0,3.0,82,0.00,,,0.06,Wunderground v.1.15,2013-09-27 20:05:00,
2013-09-27 13:15:00,56.6,51.2,29.92,SE,141,2.0,5.0,82,0.00,,,0.06,Wunderground v.1.15,2013-09-27 20:15:00,
2013-09-27 13:25:00,56.6,51.5,29.92,SW,220,2.0,3.0,83,0.00,,,0.06,Wunderground v.1.15,2013-09-27 20:25:00,
2013-09-27 13:35:00,56.4,51.3,29.92,South,180,3.0,8.0,83,0.00,,,0.06,Wunderground v.1.15,2013-09-27 20:35:00,
2013-09-27 13:45:00,56.2,51.4,29.92,ESE,122,3.0,8.0,84,0.00,,,0.06,Wunderground v.1.15,2013-09-27 20:45:00,
2013-09-27 13:55:00,56.2,51.4,29.92,SSW,201,2.0,8.0,84,0.00,,,0.06,Wunderground v.1.15,2013-09-27 20:55:00,
2013-09-27 14:05:00,55.9,51.8,29.91,East,82,2.0,4.0,86,0.00,,,0.06,Wunderground v.1.15,2013-09-27 21:05:00,
2013-09-27 14:15:00,55.8,51.7,29.91,SSE,152,3.0,4.0,86,0.00,,,0.06,Wunderground v.1.15,2013-09-27 21:15:00,
2013-09-27 14:25:00,55.9,51.8,29.90,WSW,241,3.0,3.0,86,0.00,,,0.06,Wunderground v.1.15,2013-09-27 21:25:00,
2013-09-27 14:35:00,55.9,52.1,29.90,South,185,2.0,11.0,87,0.00,,,0.06,Wunderground v.1.15,2013-09-27 21:35:00,
2013-09-27 14:45:00,56.0,51.9,29.89,SW,218,3.0,11.0,86,0.00,,,0.06,Wunderground v.1.15,2013-09-27 21:45:00,
2013-09-27 14:55:00,56.3,51.8,29.89,SSW,204,3.0,11.0,85,0.00,,,0.06,Wunderground v.1.15,2013-09-27 21:55:00,
2013-09-27 15:00:00,56.5,52.0,29.89,ESE,104,3.0,3.0,85,0.00,,,0.06,Wunderground v.1.15,2013-09-27 22:00:00,
2013-09-27 15:05:00,56.6,52.1,29.89,South,191,3.0,5.0,85,0.00,,,0.06,Wunderground v.1.15,2013-09-27 22:05:00,
2013-09-27 15:15:00,56.8,52.3,29.89,SSW,204,4.0,5.0,85,0.00,,,0.06,Wunderground v.1.15,2013-09-27 22:15:00,
2013-09-27 15:25:00,56.9,52.1,29.89,South,175,4.0,6.0,84,0.00,,,0.06,Wunderground v.1.15,2013-09-27 22:25:00,
2013-09-27 15:35:00,56.7,52.2,29.89,SSE,159,3.0,11.0,85,0.00,,,0.06,Wunderground v.1.15,2013-09-27 22:35:00,
2013-09-27 15:45:00,56.7,52.2,29.89,SSW,199,4.0,11.0,85,0.00,,,0.06,Wunderground v.1.15,2013-09-27 22:45:00,
2013-09-27 15:55:00,56.8,52.3,29.89,SE,128,3.0,11.0,85,0.00,,,0.06,Wunderground v.1.15,2013-09-27 22:55:00,
2013-09-27 16:05:00,56.7,52.2,29.89,SSE,166,3.0,4.0,85,0.00,,,0.06,Wunderground v.1.15,2013-09-27 23:05:00,
2013-09-27 16:15:00,56.6,52.1,29.89,SSW,194,2.0,4.0,85,0.00,,,0.06,Wunderground v.1.15,2013-09-27 23:15:00,
2013-09-27 16:25:00,56.5,52.0,29.89,East,85,3.0,3.0,85,0.00,,,0.06,Wunderground v.1.15,2013-09-27 23:25:00,
2013-09-27 16:30:00,56.5,52.4,29.90,SW,214,2.0,2.0,86,0.00,,,0.06,Wunderground v.1.15,2013-09-27 23:30:00,
2013-09-27 16:35:00,56.5,52.4,29.90,West,270,1.0,12.0,86,0.00,,,0.06,Wunderground v.1.15,2013-09-27 23:35:00,
2013-09-27 16:45:00,56.4,52.3,29.90,SSE,160,1.0,3.0,86,0.00,,,0.06,Wunderground v.1.15,2013-09-27 23:45:00,
2013-09-27 16:55:00,56.4,52.3,29.89,WSW,250,1.0,12.0,86,0.00,,,0.06,Wunderground v.1.15,2013-09-27 23:55:00,
2013-09-27 17:05:00,56.4,52.6,29.89,WSW,237,1.0,1.0,87,0.00,,,0.06,Wunderground v.1.15,2013-09-28 00:05:00,
2013-09-27 17:15:00,56.3,52.5,29.89,SSW,203,0.0,0.0,87,0.00,,,0.06,Wunderground v.1.15,2013-09-28 00:15:00,
2013-09-27 17:25:00,56.1,52.3,29.89,SSE,164,1.0,1.0,87,0.00,,,0.06,Wunderground v.1.15,2013-09-28 00:25:00,
2013-09-27 17:35:00,56.0,52.5,29.89,SSW,201,1.0,8.0,88,0.00,,,0.06,Wunderground v.1.15,2013-09-28 00:35:00,
2013-09-27 17:45:00,55.9,52.7,29.89,South,185,0.0,8.0,89,0.00,,,0.06,Wunderground v.1.15,2013-09-28 00:45:00,
2013-09-27 17:55:00,55.8,52.6,29.89,SSW,195,0.0,8.0,89,0.00,,,0.06,Wunderground v.1.15,2013-09-28 00:55:00,
2013-09-27 18:05:00,55.7,52.5,29.89,South,185,1.0,1.0,89,0.00,,,0.06,Wunderground v.1.15,2013-09-28 01:05:00,
2013-09-27 18:10:00,55.7,52.5,29.89,SSW,196,0.0,0.0,89,0.00,,,0.06,Wunderground v.1.15,2013-09-28 01:10:00,
2013-09-27 18:15:00,55.8,52.6,29.89,WSW,258,1.0,1.0,89,0.00,,,0.06,Wunderground v.1.15,2013-09-28 01:15:00,
2013-09-27 18:25:00,55.9,52.4,29.88,South,180,1.0,2.0,88,0.00,,,0.06,Wunderground v.1.15,2013-09-28 01:25:00,
2013-09-27 18:35:00,55.9,52.7,29.88,SSE,149,1.0,5.0,89,0.00,,,0.06,Wunderground v.1.15,2013-09-28 01:35:00,
2013-09-27 18:45:00,55.9,52.7,29.88,NW,326,1.0,6.0,89,0.00,,,0.06,Wunderground v.1.15,2013-09-28 01:45:00,
2013-09-27 18:55:00,55.9,52.7,29.88,SSW,198,1.0,6.0,89,0.00,,,0.06,Wunderground v.1.15,2013-09-28 01:55:00,
2013-09-27 19:05:00,55.8,52.6,29.88,SSE,162,0.0,0.0,89,0.00,,,0.06,Wunderground v.1.15,2013-09-28 02:05:00,
2013-09-27 19:15:00,55.8,52.9,29.87,ESE,120,0.0,1.0,90,0.00,,,0.06,Wunderground v.1.15,2013-09-28 02:15:00,
2013-09-27 19:25:00,55.7,52.5,29.87,South,175,1.0,1.0,89,0.00,,,0.06,Wunderground v.1.15,2013-09-28 02:25:00,
2013-09-27 19:35:00,55.8,52.6,29.86,South,175,1.0,7.0,89,0.00,,,0.06,Wunderground v.1.15,2013-09-28 02:35:00,
2013-09-27 19:45:00,56.0,52.5,29.86,SW,235,3.0,3.0,88,0.00,,,0.06,Wunderground v.1.15,2013-09-28 02:45:00,
2013-09-27 19:50:00,56.1,52.6,29.86,ESE,114,3.0,3.0,88,0.00,,,0.06,Wunderground v.1.15,2013-09-28 02:50:00,
2013-09-27 19:55:00,56.1,52.6,29.86,WSW,253,2.0,7.0,88,0.00,,,0.06,Wunderground v.1.15,2013-09-28 02:55:00,
2013-09-27 20:05:00,56.1,52.6,29.86,SSW,194,2.0,2.0,88,0.00,,,0.06,Wunderground v.1.15,2013-09-28 03:05:00,
2013-09-27 20:15:00,56.2,52.7,29.86,NW,310,3.0,3.0,88,0.00,,,0.06,Wunderground v.1.15,2013-09-28 03:15:00,
2013-09-27 20:25:00,56.1,52.6,29.86,South,175,3.0,3.0,88,0.00,,,0.06,Wunderground v.1.15,2013-09-28 03:25:00,
2013-09-27 20:35:00,56.1,52.6,29.86,South,170,2.0,6.0,88,0.00,,,0.06,Wunderground v.1.15,2013-09-28 03:35:00,
2013-09-27 20:45:00,56.0,52.5,29.85,South,180,2.0,6.0,88,0.00,,,0.06,Wunderground v.1.15,2013-09-28 03:45:00,
2013-09-27 20:55:00,56.0,52.5,29.86,South,180,2.0,3.0,88,0.00,,,0.06,Wunderground v.1.15,2013-09-28 03:55:00,
2013-09-27 21:05:00,56.0,52.5,29.85,SSE,166,2.0,3.0,88,0.00,,,0.06,Wunderground v.1.15,2013-09-28 04:05:00,
2013-09-27 21:10:00,56.0,52.5,29.85,SSW,195,2.0,2.0,88,0.00,,,0.06,Wunderground v.1.15,2013-09-28 04:10:00,
2013-09-27 21:15:00,56.0,52.5,29.85,WSW,247,2.0,5.0,88,0.00,,,0.06,Wunderground v.1.15,2013-09-28 04:15:00,
2013-09-27 21:25:00,56.0,52.5,29.85,South,175,2.0,3.0,88,0.00,,,0.06,Wunderground v.1.15,2013-09-28 04:25:00,
2013-09-27 21:35:00,55.9,52.4,29.85,South,175,2.0,4.0,88,0.00,,,0.06,Wunderground v.1.15,2013-09-28 04:35:00,
2013-09-27 21:45:00,55.9,52.4,29.85,South,185,2.0,9.0,88,0.00,,,0.06,Wunderground v.1.15,2013-09-28 04:45:00,
2013-09-27 21:55:00,55.9,52.4,29.85,SE,141,2.0,9.0,88,0.00,,,0.06,Wunderground v.1.15,2013-09-28 04:55:00,
2013-09-27 22:05:00,55.9,52.4,29.85,South,175,3.0,5.0,88,0.00,,,0.06,Wunderground v.1.15,2013-09-28 05:05:00,
2013-09-27 22:15:00,55.9,52.4,29.85,South,185,2.0,4.0,88,0.00,,,0.06,Wunderground v.1.15,2013-09-28 05:15:00,
2013-09-27 22:25:00,55.9,52.4,29.85,WSW,239,2.0,2.0,88,0.00,,,0.06,Wunderground v.1.15,2013-09-28 05:25:00,
2013-09-27 22:35:00,55.9,52.4,29.85,SSE,160,2.0,7.0,88,0.00,,,0.06,Wunderground v.1.15,2013-09-28 05:35:00,
2013-09-27 22:45:00,55.9,52.4,29.84,East,86,2.0,7.0,88,0.00,,,0.06,Wunderground v.1.15,2013-09-28 05:45:00,
2013-09-27 22:55:00,55.9,52.4,29.84,SSW,196,2.0,7.0,88,0.00,,,0.06,Wunderground v.1.15,2013-09-28 05:55:00,
2013-09-27 23:05:00,55.8,52.3,29.84,SSW,200,2.0,2.0,88,0.00,,,0.06,Wunderground v.1.15,2013-09-28 06:05:00,
2013-09-27 23:15:00,55.7,52.2,29.83,SSE,160,1.0,3.0,88,0.00,,,0.06,Wunderground v.1.15,2013-09-28 06:15:00,
2013-09-27 23:25:00,55.6,52.1,29.83,South,175,1.0,2.0,88,0.00,,,0.06,Wunderground v.1.15,2013-09-28 06:25:00,
2013-09-27 23:30:00,55.6,52.1,29.83,South,175,1.0,1.0,88,0.00,,,0.06,Wunderground v.1.15,2013-09-28 06:30:00,
2013-09-27 23:35:00,55.5,52.0,29.83,South,180,1.0,2.0,88,0.00,,,0.06,Wunderground v.1.15,2013-09-28 06:35:00,
2013-09-27 23:45:00,55.4,52.2,29.82,SSW,199,1.0,9.0,89,0.00,,,0.06,Wunderground v.1.15,2013-09-28 06:45:00,
2013-09-27 23:55:00,55.3,52.1,29.83,SSW,206,1.0,9.0,89,0.00,,,0.06,Wunderground v.1.15,2013-09-28 06:55:00,